Weather History for Wahpeton, ND

Change the Weather History Date:

Friday, January 17, 2014

  Actual Average (KFFM) Record (KFFM)
Temperature  
Mean Temperature 4 °F -  
Max Temperature 19 °F 16 °F 39 °F (1964)
Min Temperature -11 °F -3 °F -34 °F (1977)
Degree Days  
Heating Degree Days 61    
Moisture  
Dew Point -4 °F    
Average Humidity 73    
Maximum Humidity 86    
Minimum Humidity 61    
Precipitation  
Precipitation 0.00 in - - ()
Sea Level Pressure  
Sea Level Pressure 29.97 in    
Wind  
Wind Speed 11 mph (South)    
Max Wind Speed 20 mph    
Max Gust Speed 25 mph    
Visibility 9 miles    
Events      
Averages and records for this station are not official NWS values.
T = Trace of Precipitation, MM = Missing Value Source: NWS Daily Summary

Daily Weather History Graph

Daily Weather History Graph

Search for Another Location

Airport:

Trip Planner

Search our weather history database for the weather conditions in past years. The results will help you decide how hot, cold, wet, or windy it might be!

Date:

Astronomy

Jan. 17, 2014 Rise Set
Actual Time 8:03 AM CST 5:09 PM CST
Civil Twilight 7:30 AM CST 5:43 PM CST
Nautical Twilight 6:53 AM CST 6:20 PM CST
Astronomical Twilight 6:17 AM CST 6:56 PM CST
Moon 7:06 PM CST (1/17) 8:24 AM CST (1/17)
Length of Visible Light 10h 12m
Length of Day
9h 05m
Full, 98% of the Moon is Illuminated
Jan 17
Full
Jan 23
Last Quarter
Jan 30
New
Feb 6
First Quarter
Feb 14
Full

Hourly Weather History & Observations

Time (CST) Temp. Windchill Dew Point Humidity Pressure Visibility Wind Dir Wind Speed Gust Speed Precip Events Conditions
12:15 AM 1.4 °F -18.2 °F -7.6 °F 66% 30.11 in 10.0 mi NNW 16.1 mph 25.3 mph N/A   Clear
12:35 AM -0.4 °F -21.2 °F -7.6 °F 72% 30.11 in 10.0 mi NNW 17.3 mph 23.0 mph N/A   Clear
12:55 AM -0.4 °F -21.2 °F -7.6 °F 72% 30.11 in 10.0 mi NNW 17.3 mph 23.0 mph N/A   Clear
1:15 AM -0.4 °F -21.7 °F -9.4 °F 66% 30.11 in 10.0 mi NNW 18.4 mph - N/A   Clear
1:35 AM -0.4 °F -19.2 °F -9.4 °F 66% 30.11 in 10.0 mi NNW 13.8 mph 20.7 mph N/A   Clear
1:55 AM -2.2 °F -19.9 °F -9.4 °F 71% 30.11 in 10.0 mi NNW 11.5 mph - N/A   Clear
2:15 AM -2.2 °F -19.9 °F -9.4 °F 71% 30.12 in 10.0 mi NNW 11.5 mph - N/A   Clear
2:35 AM -2.2 °F -21.5 °F -9.4 °F 71% 30.12 in 10.0 mi NNW 13.8 mph - N/A   Clear
2:55 AM -2.2 °F -19.9 °F -9.4 °F 71% 30.12 in 10.0 mi NNW 11.5 mph - N/A   Clear
3:15 AM -2.2 °F -18.9 °F -9.4 °F 71% 30.12 in 10.0 mi NNW 10.4 mph - N/A   Clear
3:35 AM -4.0 °F -21.2 °F -11.2 °F 71% 30.13 in 10.0 mi NNW 10.4 mph - N/A   Clear
3:55 AM -4.0 °F -19.0 °F -13.0 °F 65% 30.13 in 10.0 mi NNW 8.1 mph - N/A   Clear
4:15 AM -4.0 °F -20.2 °F -13.0 °F 65% 30.13 in 10.0 mi NW 9.2 mph - N/A   Clear
4:35 AM -4.0 °F -22.1 °F -11.2 °F 71% 30.13 in 10.0 mi NNW 11.5 mph - N/A   Clear
4:55 AM -4.0 °F -19.0 °F -11.2 °F 71% 30.13 in 10.0 mi NNW 8.1 mph - N/A   Clear
5:15 AM -4.0 °F -19.0 °F -11.2 °F 71% 30.13 in 10.0 mi NNW 8.1 mph - N/A   Clear
5:35 AM -4.0 °F -16.3 °F -11.2 °F 71% 30.12 in 10.0 mi NNW 5.8 mph - N/A   Clear
5:55 AM -5.8 °F -18.4 °F -13.0 °F 71% 30.13 in 10.0 mi WNW 5.8 mph - N/A   Clear
6:15 AM -7.6 °F -20.6 °F -13.0 °F 77% 30.13 in 10.0 mi NW 5.8 mph - N/A   Clear
6:35 AM -7.6 °F -22.1 °F -14.8 °F 71% 30.13 in 10.0 mi NW 6.9 mph - N/A   Clear
6:55 AM -5.8 °F -22.4 °F -13.0 °F 71% 30.13 in 10.0 mi NW 9.2 mph - N/A   Clear
7:15 AM -7.6 °F -22.1 °F -13.0 °F 77% 30.12 in 10.0 mi NW 6.9 mph - N/A   Clear
7:35 AM -7.6 °F - -14.8 °F 71% 30.12 in 10.0 mi Calm Calm - N/A   Clear
7:55 AM -9.4 °F -20.9 °F -16.6 °F 71% 30.11 in 10.0 mi West 4.6 mph - N/A   Clear
8:15 AM -11.2 °F -26.4 °F -18.4 °F 70% 30.11 in 10.0 mi WNW 6.9 mph - N/A   Clear
8:35 AM -11.2 °F -20.6 °F -16.6 °F 77% 30.11 in 10.0 mi West 3.5 mph - N/A   Clear
8:55 AM -9.4 °F - -16.6 °F 71% 30.11 in 10.0 mi Calm Calm - N/A   Clear
9:15 AM -9.4 °F - -16.6 °F 71% 30.10 in 10.0 mi Calm Calm - N/A   Clear
9:35 AM -9.4 °F - -14.8 °F 77% 30.11 in 10.0 mi Calm Calm - N/A   Clear
9:55 AM -7.6 °F -16.5 °F -14.8 °F 71% 30.11 in 10.0 mi West 3.5 mph - N/A   Clear
10:15 AM -5.8 °F -14.5 °F -13.0 °F 71% 30.11 in 10.0 mi West 3.5 mph - N/A   Clear
10:35 AM -4.0 °F - -9.4 °F 78% 30.11 in 10.0 mi Calm Calm - N/A   Clear
10:55 AM -2.2 °F - -9.4 °F 71% 30.10 in 10.0 mi Calm Calm - N/A   Clear
11:15 AM -0.4 °F - -7.6 °F 72% 30.10 in 10.0 mi Calm Calm - N/A   Clear
11:35 AM 1.4 °F - -7.6 °F 66% 30.09 in 10.0 mi Calm Calm - N/A   Clear
11:55 AM 3.2 °F - -7.6 °F 61% 30.08 in 10.0 mi Calm Calm - N/A   Clear
12:15 PM 3.2 °F - -5.8 °F 66% 30.06 in 10.0 mi Calm Calm - N/A   Clear
12:35 PM 5.0 °F - -5.8 °F 61% 30.04 in 10.0 mi Calm Calm - N/A   Clear
12:55 PM 5.0 °F - -4.0 °F 66% 30.02 in 10.0 mi Calm Calm - N/A   Clear
1:15 PM 6.8 °F -2.0 °F -4.0 °F 61% 30.02 in 10.0 mi SSE 4.6 mph - N/A   Clear
1:35 PM 6.8 °F -4.8 °F -2.2 °F 67% 30.01 in 10.0 mi SE 6.9 mph - N/A   Clear
1:55 PM 6.8 °F -5.9 °F -2.2 °F 67% 30.00 in 10.0 mi SSE 8.1 mph - N/A   Clear
2:15 PM 6.8 °F -5.9 °F -0.4 °F 72% 29.99 in 10.0 mi SSE 8.1 mph - N/A   Clear
2:35 PM 8.6 °F -4.7 °F -0.4 °F 67% 29.98 in 10.0 mi SSE 9.2 mph - N/A   Clear
2:55 PM 8.6 °F -5.5 °F -0.4 °F 67% 29.96 in 10.0 mi SSE 10.4 mph - N/A   Clear
3:15 PM 8.6 °F -4.7 °F -0.4 °F 67% 29.96 in 10.0 mi SSE 9.2 mph - N/A   Clear
3:35 PM 8.6 °F -4.7 °F -0.4 °F 67% 29.95 in 10.0 mi SE 9.2 mph - N/A   Clear
3:55 PM 8.6 °F -3.7 °F 1.4 °F 73% 29.95 in 10.0 mi SSE 8.1 mph - N/A   Clear
4:15 PM 8.6 °F -5.5 °F 1.4 °F 73% 29.94 in 10.0 mi SSE 10.4 mph - N/A   Clear
4:35 PM 8.6 °F -5.5 °F 1.4 °F 73% 29.94 in 10.0 mi SSE 10.4 mph - N/A   Clear
4:55 PM 8.6 °F -6.3 °F 1.4 °F 73% 29.92 in 10.0 mi SSE 11.5 mph - N/A   Scattered Clouds
5:15 PM 8.6 °F -7.0 °F 3.2 °F 79% 29.89 in 10.0 mi SSE 12.7 mph - N/A   Overcast
5:35 PM 10.4 °F -3.3 °F 3.2 °F 73% 29.89 in 10.0 mi SSE 10.4 mph - N/A   Scattered Clouds
5:55 PM 10.4 °F -2.4 °F 3.2 °F 73% 29.88 in 10.0 mi SSE 9.2 mph - N/A   Scattered Clouds
6:15 PM 10.4 °F -2.4 °F 5.0 °F 79% 29.87 in 10.0 mi SSE 9.2 mph - N/A   Mostly Cloudy
6:35 PM 10.4 °F -3.3 °F 5.0 °F 79% 29.84 in 10.0 mi SE 10.4 mph - N/A   Overcast
6:55 PM 12.2 °F -1.0 °F 5.0 °F 73% 29.83 in 10.0 mi SE 10.4 mph - N/A   Overcast
7:15 PM 12.2 °F -3.1 °F 5.0 °F 73% 29.81 in 5.0 mi SE 13.8 mph - N/A   Overcast
7:35 PM 12.2 °F -2.5 °F 6.8 °F 79% 29.79 in 4.0 mi SSE 12.7 mph - N/A   Overcast
7:55 PM 12.2 °F -3.7 °F 6.8 °F 79% 29.76 in 4.0 mi SE 15.0 mph - N/A   Overcast
8:15 PM 14.0 °F -2.5 °F 8.6 °F 79% 29.73 in 5.0 mi SE 17.3 mph - N/A   Overcast
8:35 PM 14.0 °F -0.2 °F 8.6 °F 79% 29.72 in 7.0 mi SSE 12.7 mph 20.7 mph N/A   Overcast
8:55 PM 14.0 °F -2.5 °F 10.4 °F 86% 29.69 in 7.0 mi SSE 17.3 mph 21.9 mph N/A   Overcast
9:15 PM 15.8 °F -0.2 °F 10.4 °F 79% 29.68 in 5.0 mi SSE 17.3 mph - N/A   Overcast
9:35 PM 15.8 °F -0.2 °F 12.2 °F 86% 29.64 in 4.0 mi SSE 17.3 mph - N/A   Overcast
9:55 PM 15.8 °F -0.2 °F 12.2 °F 86% 29.61 in 4.0 mi SSE 17.3 mph - N/A   Overcast
10:15 PM 17.6 °F 1.7 °F 12.2 °F 79% 29.58 in 4.0 mi SSE 18.4 mph - N/A   Overcast
10:35 PM 17.6 °F 1.3 °F 14.0 °F 86% 29.56 in 3.0 mi SSE 19.6 mph - N/A   Overcast
10:55 PM 17.6 °F 1.7 °F 14.0 °F 86% 29.55 in 5.0 mi SSE 18.4 mph - N/A   Overcast
11:15 PM 17.6 °F 3.2 °F 14.0 °F 86% 29.54 in 10.0 mi SSE 15.0 mph - N/A   Overcast
11:35 PM 19.4 °F 4.5 °F 14.0 °F 80% 29.51 in 5.0 mi SSE 17.3 mph - N/A   Overcast
11:55 PM 19.4 °F 3.6 °F 15.8 °F 86% 29.49 in 1.2 mi SSE 19.6 mph - N/A   Overcast